Temp
13 13 13 14 14 14 15 15 15 16 16 17 17 17 17 17 18 18 19 19 18 17 18 17 17 17 18 18 17 16 16 16 15 15 14 14 13 12 12 11 11 11 10 10
13 14 15 15 15 15 16 16 16 16 17 17 17 17 17 17 17 18 18 18 19 18 18 18 17 17 17 18 18 17 17 16 16 15 14 13 13 12 12 11 11 11 11 10
14 15 15 16 16 16 16 16 16 16 17 17 16 16 16 17 17 18 18 18 18 18 18 18 17 17 17 17 18 18 17 17 16 15 14 14 13 13 13 12 12 12 11 11
15 15 16 16 16 16 16 16 16 16 16 16 16 15 16 16 16 17 17 17 18 18 18 18 18 17 17 17 18 18 17 17 16 16 15 15 14 14 13 12 12 12 11 11
15 15 15 16 16 16 16 15 15 15 15 15 16 15 16 16 16 16 16 16 17 17 17 17 17 18 17 17 17 18 18 17 17 16 15 15 14 14 13 12 12 12 11 11
15 15 15 16 16 16 15 15 15 15 15 13 16 16 16 16 15 15 15 16 16 16 17 16 16 17 18 17 17 18 18 17 17 16 15 14 14 14 13 13 12 12 11 10
14 16 16 16 16 16 15 15 14 12 12 12 17 16 16 15 15 15 14 14 13 15 16 15 16 17 18 18 17 18 18 18 18 17 16 14 14 14 13 13 12 12 11 10
14 14 15 15 15 15 15 15 15 11 11 13 16 16 12 14 14 14 13 14 14 14 15 13 16 14 18 18 18 18 18 18 18 18 16 15 14 14 13 13 12 12 11 11
13 13 15 14 14 14 15 15 15 15 15 14 16 15 14 14 14 14 13 14 13 13 14 15 13 14 13 13 17 18 18 17 18 18 17 15 14 14 13 13 13 12 11 12
12 12 13 13 13 14 14 14 15 15 10 10 13 12 12 13 13 13 14 14 14 14 14 14 11 11 13 13 14 15 17 17 18 18 17 15 14 14 13 12 12 12 11 12
12 11 11 12 12 12 13 14 14 13 13 9 8 11 11 12 12 12 13 13 13 14 14 13 10 11 12 12 13 13 15 17 17 16 16 15 14 13 13 12 12 12 11 11
11 11 11 10 11 12 13 13 12 12 12 12 12 11 10 12 11 12 12 13 13 11 12 12 12 9 9 6 11 12 14 16 16 15 15 14 13 13 13 12 12 12 11 12
11 10 9 9 12 13 12 12 12 12 12 12 10 11 12 11 13 11 10 12 11 11 11 11 10 10 8 7 9 12 12 12 13 13 12 13 13 12 13 12 12 11 11 12
10 10 10 9 10 10 11 11 11 12 12 12 13 13 11 11 11 10 10 10 9 9 10 9 9 9 7 8 11 13 12 12 12 12 11 11 11 12 11 11 11 11 11 11
9 9 9 9 9 10 10 10 11 11 12 12 11 11 10 10 10 9 9 9 9 10 9 9 9 8 7 11 12 12 13 12 11 11 11 12 12 12 11 11 11 10 9 11
9 8 8 8 9 9 10 10 10 11 11 11 10 10 9 9 9 9 8 9 9 8 7 7 8 10 9 9 10 11 12 12 12 9 10 11 11 11 12 11 10 10 8 9
8 8 8 8 8 9 9 9 9 9 10 10 10 9 9 9 9 9 8 8 8 8 8 9 8 9 10 10 10 10 10 10 10 9 9 10 11 9 9 10 10 9 8 6
8 8 8 8 8 7 9 8 8 8 8 8 8 8 8 7 7 9 7 7 8 8 8 7 8 8 9 10 10 9 10 11 7 8 8 9 10 10 10 10 11 9 7 8
9 9 9 8 8 8 9 8 7 7 7 7 7 7 7 8 7 8 7 7 7 7 7 7 8 8 9 9 10 9 8 10 8 8 8 9 9 10 9 11 10 8 8 8
8 8 8 7 6 6 7 7 6 7 7 5 6 7 7 8 6 6 5 6 7 7 7 7 7 8 8 9 9 8 8 7 8 7 8 9 8 10 10 9 9 9 8 9
7 7 7 6 5 5 6 6 6 5 6 7 4 6 7 6 6 5 6 6 5 6 7 6 5 7 7 8 8 7 7 6 7 8 8 8 9 8 9 8 7 8 8 8
6 6 6 6 6 6 5 5 5 5 5 5 4 5 6 7 7 6 6 5 5 5 6 5 6 6 6 6 6 7 7 8 7 8 8 8 8 7 7 7 7 7 7 7
6 6 6 5 5 5 4 5 5 4 5 4 5 6 6 6 5 5 4 4 4 5 5 5 5 5 6 6 6 6 7 7 7 6 7 7 7 5 5 5 5 6 6 7
6 5 5 5 5 5 5 4 4 4 4 5 5 5 5 5 5 5 5 5 4 5 4 4 5 5 5 6 6 6 6 6 6 6 6 5 5 5 5 5 5 5 5 4
6 6 5 5 5 5 4 4 4 4 4 4 4 5 5 5 5 4 4 4 4 4 4 4 4 5 5 5 5 5 6 6 6 6 6 6 5 5 5 5 5 4 4 5
4 5 5 5 5 4 4 4 4 4 4 3 3 4 4 4 4 4 4 4 4 4 3 3 4 4 4 4 4 4 5 5 6 6 5 5 5 5 5 5 5 4 4 4
Height
3147 3147 3145 3142 3142 3142 3141 3141 3139 3139 3138 3135 3132 3130 3131 3131 3131 3132 3137 3135 3133 3135 3135 3133 3137 3142 3146 3147 3149 3151 3152 3154 3155 3157 3160 3162 3163 3164 3164 3165 3167 3171 3173 3172
3147 3144 3142 3141 3141 3141 3139 3138 3136 3135 3135 3132 3129 3127 3128 3125 3124 3126 3128 3130 3133 3136 3136 3131 3133 3135 3140 3143 3145 3146 3149 3151 3153 3154 3157 3159 3161 3163 3164 3165 3166 3168 3170 3171
3144 3141 3141 3141 3139 3139 3138 3136 3134 3132 3130 3128 3125 3122 3124 3122 3120 3119 3121 3123 3125 3128 3132 3129 3128 3130 3136 3139 3141 3143 3144 3147 3149 3151 3152 3155 3157 3160 3161 3163 3164 3166 3167 3168
3141 3140 3139 3139 3137 3137 3135 3135 3130 3127 3128 3125 3124 3117 3118 3117 3116 3115 3114 3113 3116 3119 3123 3128 3123 3123 3127 3134 3136 3138 3140 3142 3144 3146 3147 3150 3153 3157 3160 3161 3162 3163 3164 3166
3137 3137 3136 3135 3134 3134 3132 3132 3129 3126 3123 3123 3117 3117 3112 3113 3111 3112 3111 3113 3113 3114 3116 3119 3121 3113 3119 3125 3128 3131 3134 3137 3137 3141 3143 3145 3148 3152 3156 3158 3157 3159 3160 3161
3136 3134 3133 3131 3131 3131 3130 3128 3126 3123 3119 3118 3111 3113 3109 3108 3108 3107 3104 3103 3106 3105 3103 3106 3104 3104 3109 3117 3121 3125 3127 3130 3132 3134 3137 3140 3142 3146 3150 3152 3153 3154 3156 3156
3133 3128 3123 3132 3130 3128 3128 3125 3122 3122 3118 3115 3109 3108 3105 3104 3101 3101 3101 3099 3094 3094 3095 3100 3096 3094 3101 3106 3113 3117 3119 3122 3125 3128 3129 3135 3138 3140 3144 3146 3148 3150 3151 3152
3134 3127 3125 3126 3128 3127 3125 3124 3123 3122 3119 3110 3108 3104 3107 3100 3097 3096 3096 3094 3093 3097 3101 3097 3087 3087 3095 3100 3105 3110 3112 3114 3116 3120 3122 3126 3132 3135 3138 3141 3144 3146 3147 3147
3132 3127 3124 3125 3124 3125 3122 3121 3120 3114 3110 3104 3103 3104 3099 3098 3096 3095 3093 3089 3087 3093 3099 3093 3086 3087 3090 3095 3102 3106 3109 3110 3111 3113 3115 3118 3124 3128 3132 3136 3139 3141 3143 3144
3130 3126 3125 3121 3121 3121 3121 3118 3113 3112 3111 3108 3100 3101 3100 3098 3094 3095 3093 3091 3092 3091 3092 3084 3079 3078 3083 3083 3093 3103 3104 3106 3107 3108 3110 3114 3117 3122 3126 3130 3134 3138 3139 3140
3128 3128 3123 3122 3121 3119 3116 3113 3112 3112 3110 3109 3106 3102 3098 3096 3094 3092 3091 3092 3091 3090 3086 3077 3078 3080 3077 3082 3091 3091 3102 3102 3103 3105 3107 3110 3112 3116 3120 3125 3129 3134 3136 3137
3127 3125 3122 3119 3116 3116 3118 3115 3113 3112 3110 3107 3104 3102 3096 3096 3092 3088 3086 3082 3086 3082 3080 3081 3074 3069 3074 3058 3078 3081 3094 3096 3099 3100 3102 3105 3109 3113 3116 3119 3124 3128 3132 3133
3124 3124 3120 3114 3112 3113 3111 3112 3111 3110 3106 3103 3102 3099 3095 3094 3088 3089 3083 3078 3077 3080 3073 3072 3072 3074 3084 3091 3087 3085 3083 3087 3092 3095 3096 3099 3104 3110 3113 3117 3120 3125 3129 3131
3120 3120 3121 3120 3119 3116 3111 3111 3110 3107 3104 3100 3096 3093 3091 3091 3088 3090 3085 3076 3069 3071 3071 3074 3075 3077 3087 3089 3085 3083 3083 3086 3087 3089 3091 3094 3097 3098 3101 3106 3112 3118 3121 3124
3118 3116 3116 3115 3113 3112 3109 3107 3107 3104 3101 3097 3092 3090 3089 3089 3088 3087 3086 3083 3077 3070 3063 3064 3079 3082 3084 3085 3082 3081 3081 3081 3083 3083 3080 3083 3084 3088 3092 3094 3097 3103 3106 3117
3114 3111 3112 3110 3110 3109 3106 3103 3100 3097 3094 3091 3088 3089 3088 3088 3086 3085 3082 3079 3079 3080 3075 3074 3079 3079 3080 3079 3078 3079 3076 3076 3077 3077 3070 3079 3083 3083 3085 3087 3087 3079 3070 3099
3110 3108 3108 3103 3106 3104 3103 3099 3095 3092 3090 3089 3086 3085 3082 3081 3077 3078 3080 3076 3074 3075 3076 3075 3075 3074 3072 3070 3067 3067 3067 3066 3068 3070 3076 3077 3079 3080 3081 3082 3080 3079 3075 3064
3101 3103 3103 3098 3101 3100 3100 3095 3092 3090 3087 3086 3084 3084 3082 3079 3075 3072 3077 3077 3072 3071 3073 3072 3071 3071 3068 3066 3065 3063 3063 3063 3074 3072 3075 3073 3073 3071 3073 3074 3075 3080 3072 3052
3093 3095 3097 3095 3094 3094 3095 3089 3089 3087 3085 3083 3080 3079 3079 3075 3070 3070 3072 3075 3072 3069 3071 3069 3067 3065 3063 3061 3062 3059 3062 3059 3065 3068 3070 3067 3068 3069 3066 3059 3059 3068 3080 3083
3092 3091 3092 3091 3093 3094 3089 3089 3089 3085 3081 3081 3078 3073 3074 3072 3069 3068 3068 3071 3071 3070 3068 3068 3066 3064 3064 3062 3062 3062 3058 3058 3059 3062 3064 3067 3063 3062 3059 3058 3063 3064 3072 3082
3089 3090 3087 3088 3091 3088 3087 3087 3085 3082 3081 3071 3072 3071 3067 3070 3069 3068 3067 3064 3065 3066 3065 3066 3065 3064 3063 3063 3062 3060 3060 3061 3062 3063 3066 3066 3062 3059 3060 3061 3064 3069 3072 3074
3085 3089 3086 3087 3085 3084 3084 3083 3081 3079 3074 3071 3066 3068 3067 3065 3064 3063 3062 3062 3062 3063 3063 3064 3064 3064 3064 3064 3064 3065 3066 3066 3065 3065 3063 3059 3055 3056 3054 3054 3058 3058 3061 3066
3084 3085 3084 3085 3083 3080 3079 3078 3076 3075 3073 3071 3068 3066 3066 3064 3063 3061 3062 3061 3056 3063 3065 3064 3063 3063 3065 3066 3065 3065 3065 3064 3064 3062 3059 3058 3056 3056 3053 3053 3052 3053 3054 3052
3082 3082 3082 3083 3081 3078 3075 3073 3071 3070 3069 3067 3066 3066 3064 3064 3063 3062 3061 3060 3060 3062 3063 3063 3063 3063 3064 3065 3066 3065 3064 3063 3061 3061 3058 3056 3055 3054 3053 3052 3052 3053 3050 3049
3081 3078 3079 3079 3077 3074 3072 3068 3068 3066 3064 3061 3060 3060 3061 3060 3061 3061 3061 3060 3058 3058 3059 3060 3062 3062 3062 3061 3062 3061 3062 3060 3058 3058 3057 3055 3055 3053 3051 3051 3051 3049 3046 3046
3077 3079 3077 3074 3074 3071 3067 3065 3063 3061 3058 3057 3058 3056 3057 3057 3057 3057 3058 3057 3056 3056 3056 3058 3060 3059 3058 3057 3057 3057 3058 3058 3058 3057 3056 3055 3054 3053 3053 3053 3050 3049 3048 3048
Wind_Speed
10 15 18 16 15 20 21 25 31 31 29 30 31 33 31 30 26 18 24 22 26 25 24 28 28 22 20 19 13 19 15 12 14 13 11 10 7 8 7 5 4 5 14 15
9 16 18 19 19 22 25 27 28 29 26 27 28 28 30 30 30 28 24 21 22 18 23 24 32 30 26 24 22 15 20 14 12 15 14 14 13 11 11 12 10 7 8 11
20 21 20 22 22 22 22 24 29 31 24 24 24 29 23 24 25 29 28 28 28 27 22 28 28 32 31 32 27 19 24 18 15 16 18 19 19 19 16 13 12 9 9 11
19 15 13 17 16 16 22 20 25 29 26 25 25 26 32 27 26 23 31 32 33 36 36 27 31 39 36 37 34 22 22 23 20 21 20 20 19 15 8 10 13 12 11 11
20 19 20 18 19 17 20 19 22 23 25 25 32 23 24 13 20 25 33 28 22 25 34 28 38 50 36 35 39 25 22 28 24 24 23 22 22 20 16 15 14 13 10 10
18 23 22 17 14 10 16 19 19 23 28 16 35 17 17 19 19 22 28 27 38 23 27 28 26 42 36 35 40 29 25 30 26 25 28 24 22 21 19 16 13 12 11 12
19 14 14 14 12 14 12 20 14 10 7 7 25 17 6 19 21 19 23 23 18 26 17 25 25 35 42 40 40 34 31 32 28 26 30 27 22 23 20 17 15 11 10 9
9 14 16 13 13 18 28 15 14 7 6 13 29 20 13 10 10 10 13 17 17 23 30 31 22 39 45 40 41 33 36 34 29 26 30 30 25 25 23 21 16 11 8 6
7 16 25 13 18 18 24 22 22 27 29 21 12 14 10 13 8 12 12 11 10 21 32 32 22 32 47 49 39 33 33 38 31 28 30 32 29 29 27 24 16 12 12 7
6 18 21 22 21 17 20 22 15 17 5 6 9 4 8 18 24 29 21 16 16 28 32 33 33 23 44 48 39 29 28 39 35 33 30 34 33 30 31 28 20 15 15 11
7 12 24 20 17 26 23 22 12 13 4 2 4 3 9 19 22 32 30 25 23 27 29 36 27 32 37 37 31 27 20 27 30 31 32 35 38 33 34 31 23 19 19 17
8 14 18 24 25 16 15 11 18 8 8 14 10 2 7 15 21 32 34 36 32 20 27 31 32 14 16 15 32 33 26 24 25 21 21 29 34 37 34 34 29 24 20 20
12 9 18 25 15 5 14 23 20 23 21 16 13 13 26 19 27 24 33 38 34 21 19 19 26 25 26 48 25 30 40 33 33 26 21 22 24 35 35 36 34 31 24 24
13 10 13 19 23 26 32 27 23 26 29 28 27 32 16 10 20 23 27 24 30 29 28 10 11 10 23 30 26 21 25 28 30 30 25 21 23 30 38 41 39 37 31 27
7 11 14 22 25 25 27 28 27 30 32 34 18 10 8 12 18 18 17 19 22 33 36 8 12 6 9 23 22 23 28 26 20 26 30 27 33 34 39 43 44 46 45 32
17 17 18 24 22 23 28 29 28 27 24 14 9 9 13 13 19 24 28 21 16 8 7 12 20 16 20 3 6 24 28 29 22 19 27 27 32 35 39 45 47 46 15 37
25 21 22 31 23 23 24 23 22 16 14 15 16 11 21 18 21 23 25 19 10 6 9 19 21 15 15 18 14 14 8 12 15 10 15 24 28 32 37 45 50 53 54 56
27 26 27 35 27 11 16 8 11 11 12 15 20 20 19 22 21 21 22 13 9 6 8 13 15 11 9 8 10 10 13 22 5 6 9 17 22 13 23 38 49 41 15 10
22 25 25 15 11 17 19 20 20 18 20 16 12 8 13 18 20 20 16 10 9 6 4 5 4 5 7 8 12 7 5 6 5 12 13 7 6 6 11 13 21 14 29 22
7 10 12 4 5 4 10 12 12 18 18 10 13 6 12 20 13 11 6 10 3 6 3 7 6 6 5 5 8 6 6 5 10 13 13 13 11 11 13 2 2 6 12 29
11 11 7 7 10 9 18 16 22 9 15 24 13 12 9 9 8 9 8 13 14 2 1 6 4 6 3 1 3 5 4 6 7 9 12 13 13 13 13 13 17 19 20 25
3 6 4 5 5 6 13 21 15 14 13 20 21 16 12 11 10 8 11 1 8 5 9 7 4 2 4 5 6 5 5 5 8 8 10 14 8 4 8 15 18 25 29 29
3 7 6 5 8 17 10 18 18 17 18 20 21 14 10 12 7 6 6 2 4 7 8 8 8 4 1 1 3 3 3 5 5 8 9 11 13 14 12 10 10 11 13 15
11 9 9 11 7 15 17 20 21 24 22 22 15 11 11 9 7 12 11 7 6 11 6 6 9 9 9 9 6 3 4 2 4 7 9 7 5 6 4 3 4 6 8 4
11 13 9 13 13 13 16 24 28 26 25 18 12 11 9 8 11 10 9 8 6 7 6 9 8 9 8 7 8 8 6 6 6 7 7 6 4 5 6 9 7 6 5 2
11 6 8 14 16 19 21 24 26 23 17 9 9 10 9 11 12 12 13 12 10 9 7 2 8 5 6 7 10 8 8 6 5 7 4 2 3 5 5 5 5 7 6 5
Wind_Direction
251 261 265 288 277 279 280 282 287 297 299 297 295 295 297 295 281 293 257 256 247 218 241 241 240 248 258 276 271 237 230 211 222 218 219 221 220 217 219 218 228 201 214 229
285 257 285 286 277 274 277 280 287 296 301 302 297 295 290 282 277 276 277 266 250 244 241 249 236 240 246 265 274 263 232 223 221 223 216 216 216 222 226 232 233 221 230 226
275 284 296 285 281 284 280 296 300 303 300 295 304 298 301 296 299 280 271 272 265 256 261 260 243 241 245 250 260 280 234 232 226 224 217 216 220 218 231 242 251 242 234 240
285 289 289 290 284 288 289 301 304 308 315 313 298 293 293 293 284 276 271 270 256 249 252 250 262 248 242 248 250 263 236 229 227 227 222 226 236 237 238 242 246 253 254 244
273 281 284 282 282 289 293 303 304 300 294 293 286 277 290 291 292 289 290 279 256 257 250 255 266 252 247 247 243 251 232 225 230 229 227 226 232 232 227 229 245 250 252 242
287 300 276 270 277 278 302 300 291 291 286 282 281 276 269 296 302 300 298 292 264 262 233 266 287 252 239 238 236 244 235 227 229 231 231 224 229 233 233 229 240 250 245 250
310 319 304 243 249 301 311 309 306 309 311 274 319 318 276 317 320 321 310 300 272 247 234 289 278 242 231 228 227 236 227 217 227 229 233 224 223 230 229 232 238 251 245 257
320 311 352 337 332 312 309 285 279 277 283 287 302 294 20 339 310 275 307 297 275 240 245 300 271 217 231 228 225 234 217 215 223 229 230 229 220 222 226 227 233 242 250 261
312 288 284 317 316 312 303 299 294 286 295 290 294 336 310 340 306 295 320 328 314 206 284 283 248 224 210 214 227 233 224 216 223 223 224 229 220 216 222 223 225 228 245 248
273 307 307 311 310 295 310 329 286 281 339 310 335 43 356 337 336 330 302 288 291 239 290 282 280 254 211 204 210 242 229 222 223 223 224 227 226 215 218 224 221 227 240 233
308 296 298 296 300 313 323 330 328 323 297 226 319 357 314 313 318 327 321 318 305 291 301 291 294 278 214 201 205 216 234 225 228 232 235 231 228 218 214 223 225 226 236 238
285 297 304 298 289 282 303 355 340 331 298 300 288 252 275 311 330 321 319 317 303 309 307 297 302 266 215 239 248 220 241 246 248 250 254 247 233 226 222 220 227 227 232 236
289 280 314 316 319 289 344 329 316 318 289 268 268 270 294 285 306 309 333 324 310 302 291 291 317 249 244 247 263 227 232 242 256 262 257 260 248 231 231 229 227 228 229 234
282 282 282 278 284 299 307 311 308 305 304 298 275 285 279 278 311 318 343 325 310 315 303 287 310 290 253 256 244 226 226 236 241 245 246 241 235 231 226 232 232 234 229 230
289 298 284 283 293 298 301 303 299 293 298 294 323 316 296 302 301 327 335 331 324 321 303 233 263 267 279 260 259 243 234 226 238 244 236 233 231 232 229 228 228 228 221 226
282 295 294 289 295 293 296 297 295 293 293 284 332 331 321 320 312 311 303 307 323 345 307 286 270 267 259 264 295 246 244 240 234 251 251 245 247 241 234 232 229 227 227 212
281 282 281 280 287 295 296 309 301 301 293 303 310 317 302 311 312 319 306 304 302 313 297 271 258 280 322 261 259 290 342 317 234 336 305 277 266 258 254 241 233 235 243 261
265 262 264 269 277 276 282 292 306 316 325 316 313 310 300 305 300 314 302 294 282 272 277 267 253 272 299 358 325 307 272 300 290 332 315 275 277 267 271 260 265 276 310 171
249 251 259 259 260 287 288 316 327 326 308 315 321 336 355 329 290 294 288 279 258 248 229 281 280 279 297 316 312 345 359 350 338 310 302 336 337 309 359 347 237 262 244 206
224 220 233 320 326 267 289 295 312 313 307 294 266 311 343 10 314 287 300 183 201 262 296 283 262 267 277 318 303 297 311 309 310 293 292 292 301 314 323 2 196 185 204 219
249 293 302 250 228 255 280 302 320 286 285 262 264 290 320 343 316 306 302 257 228 52 277 285 293 280 320 312 307 4 339 320 310 298 288 281 278 273 260 252 235 230 229 236
235 262 270 266 242 235 302 317 339 309 322 315 310 295 301 312 360 287 301 25 197 249 268 265 241 34 88 106 101 99 101 92 81 79 69 53 36 340 272 260 257 254 255 252
246 275 280 276 277 305 305 313 310 305 308 312 288 303 277 276 285 353 313 211 141 262 248 266 259 237 173 147 158 140 107 85 67 43 46 46 47 49 37 13 344 314 284 270
306 265 282 309 283 278 300 310 305 311 306 305 280 276 278 268 244 267 283 289 263 255 243 267 255 247 263 261 246 259 300 329 342 340 348 5 25 48 18 56 52 19 22 360
288 298 258 276 306 285 290 299 306 311 307 289 279 276 261 253 268 256 253 250 249 232 244 251 262 247 258 273 265 261 243 283 300 313 336 333 311 317 279 295 308 315 338 356
282 264 258 279 289 290 287 295 304 307 305 256 291 287 264 265 257 247 255 259 253 254 233 258 283 238 244 263 272 270 275 272 288 312 323 316 304 311 308 295 306 303 301 306